Torna al catalogo

PAS 6

AttivoComunicazioniMEO
NORAD 24891·PAYLOAD·🇺🇸 United States

Lanciato Aug 8, 1997 da Guiana Space Centre

Loading…

Prossimi Passaggi (prossime 24 ore)

TLE

AggiornatoSource: Space-Track

Epoca: Sep 14, 2026, 01:35 UTC

1 24891U 97040A   26257.06603670 -.00000199  00000-0  00000-0 0  9994
2 24891   8.7678 328.6484 0689492 255.1371  94.2292  0.93697839 77735

Traccia PAS 6 in tempo reale con AllMySat

Download on the App Store